Vertical_Velocity
0 3 1 1 -2 -9 0 -0 -2 -1 -2 1 -0 -3 -2 -0 -1 0 1 1 2 -0 0 2 0 -0 -1 1 -1 -1 -0 3 -0 -0 1 1 -1 1 0 0 -0 -0 -1 -1 2 1 5 -0 1
-1 0 -1 1 -5 31 3 3 3 3 1 -1 -1 -1 -2 -1 -1 -1 -1 1 0 1 -0 -0 1 1 1 -1 -1 1 3 -0 -1 0 -2 5 -0 1 0 1 1 -0 1 -2 3 1 1 0 1
0 -1 -1 -2 -1 3 3 2 1 -1 -2 -4 -1 0 -1 -2 -1 -1 -1 1 0 -2 -0 -1 -0 -1 -1 -0 -0 0 -1 3 -1 0 -2 1 1 0 2 -2 2 -0 0 -1 0 2 -2 1 -1
1 -1 1 -1 3 0 -1 -2 -2 -2 -1 -0 1 -0 -1 -3 -1 -3 -2 -3 -0 -2 -0 0 -1 -1 -1 -0 1 2 2 -1 -1 1 3 1 1 -4 2 -1 1 -1 0 -1 0 2 2 2 -0
-0 -1 1 2 1 -2 -1 -0 -0 -3 -1 -1 -0 0 -2 -2 -2 -1 -1 -0 -2 1 -1 2 -0 1 -0 -1 0 0 1 1 -1 0 -1 1 3 -1 2 1 -0 -0 -0 -2 2 2 1 -2 -1
-1 -1 -1 8 2 1 -1 -1 0 -1 -2 -3 0 -1 -2 -2 -3 -1 -3 -1 -2 2 1 -1 1 -1 1 0 -1 2 2 2 1 -1 -1 -1 1 -2 2 -1 -2 2 -0 -6 5 1 -1 0 0
-1 -1 -1 2 1 -0 1 0 -1 -1 -1 -3 -1 0 -1 -3 -1 -1 -2 -3 -2 0 0 -0 2 2 2 -1 5 -2 2 -0 1 1 2 0 2 -2 2 1 -0 3 2 -3 1 2 -2 -0 0
-3 -2 -1 1 2 0 0 1 -1 -1 -0 -1 -1 -1 -2 -3 -2 -1 -1 -1 -0 -2 0 0 -0 1 -1 -0 -1 -1 -2 5 4 -0 2 2 0 5 4 -0 3 -0 1 -1 -2 -0 -3 0 2
-2 -1 -1 -0 1 0 -1 3 1 -1 1 -0 -1 -2 -0 -2 -1 -1 -1 -0 -1 -0 -1 -1 0 1 -4 9 5 -0 -3 6 29 25 4 -1 2 0 0 -0 4 9 2 -0 2 -2 1 -1 2
-1 -0 1 -3 -1 3 2 -0 0 -2 -1 -3 -0 1 0 -1 -2 0 -1 -1 0 0 -1 -0 -2 -1 0 2 3 2 0 4 -9 5 -12 -6 2 13 4 3 3 6 0 3 3 3 1 -0 -1
-1 0 -1 -2 -1 0 2 1 3 -1 -2 -3 0 -1 -1 -1 -1 -2 -2 0 -1 -1 -1 -1 2 2 4 0 0 -1 2 4 4 4 -20 19 5 12 2 2 -1 0 1 1 3 1 0 0 -1
-1 -3 -2 -1 -1 -0 -0 -0 2 2 -1 -1 -1 1 -1 -2 -2 -1 -1 -1 -2 -2 -1 -3 -2 -1 -0 3 2 -1 2 2 2 -2 -4 -15 -7 -4 1 2 6 -1 0 6 2 0 1 0 -2
-1 0 -1 -3 -1 -2 -1 0 0 0 -1 -2 -2 0 -1 -1 -2 -0 -1 -2 -1 -0 0 -1 -2 -1 -1 -1 3 0 -1 2 0 1 -3 1 6 5 13 4 -2 2 -1 5 2 4 -0 1 0
1 1 -1 -3 0 -3 -4 0 -2 -1 0 -2 -2 0 -3 -1 -2 -1 0 -1 -2 -1 -0 -1 -1 -2 -2 1 -0 3 -1 2 -0 2 0 -0 1 4 2 4 4 -1 -0 3 4 5 0 0 1
2 -1 -0 1 1 -1 -3 -5 1 2 -1 -0 -2 -3 -2 -2 -0 -0 -1 -2 -2 -2 -1 -1 -0 -0 -0 -4 1 1 -1 -5 2 2 2 3 -1 -1 -1 0 -2 1 3 3 4 -0 0 -1 0
0 0 3 -2 -0 -2 -2 10 1 0 -0 -1 -3 -4 -2 -1 -2 -2 -3 -1 -1 0 2 -0 -2 -2 1 1 -2 -0 0 -3 -2 -4 -3 -0 -1 -3 -3 -1 5 10 -2 3 3 3 -0 -1 2
-1 5 1 -3 -3 -2 0 -6 -1 -0 1 -1 -0 -3 -1 -3 -1 1 -1 -1 0 -1 0 -0 -1 -1 -2 -1 -1 -4 1 -0 -2 1 -3 0 1 -3 3 -4 -2 1 1 1 -5 0 1 0 -0
0 -0 -2 -3 -0 -2 -0 -3 -1 -0 2 -0 -2 -3 -1 -2 -3 -2 -3 -1 -1 -1 -1 -2 0 1 -0 1 0 0 -0 -0 2 -2 2 -5 -0 -0 1 -2 0 0 1 -1 5 2 3 1 2
3 -0 1 -3 -1 -2 -1 -1 1 2 1 1 1 -2 -1 -3 -2 -3 -3 -2 1 -1 -1 -4 -1 2 4 0 4 5 0 6 1 -0 -3 -1 -2 -0 -1 -3 3 1 0 -3 6 -1 4 2 0
2 2 1 -4 -4 -1 -0 3 2 2 0 1 -1 -1 -2 -4 -1 0 -3 -1 -1 -1 -2 -3 0 -2 -1 0 -0 1 2 3 4 0 2 0 -0 -1 -2 2 0 2 1 -1 2 0 2 4 1
-0 4 -3 -1 -5 -1 2 -5 -6 1 -0 1 -0 -1 -3 -0 -0 1 1 -0 3 -2 -4 -3 -1 4 0 1 1 2 5 -0 3 3 0 0 0 1 -1 1 2 -0 -1 3 -3 2 2 2 2
4 -0 -2 -3 -0 12 -3 13 -4 0 -1 -0 -1 -0 0 -2 0 -1 -0 -0 0 -1 -3 -1 1 1 0 1 1 2 1 0 -0 3 1 2 2 2 -1 -1 -2 1 -0 -1 2 1 2 3 1
3 1 -0 -1 1 2 1 -5 11 -2 -1 0 0 -1 -1 -1 2 0 1 3 -1 -3 3 3 1 0 -1 -3 5 -1 0 2 1 3 2 2 2 -1 -1 0 -1 -5 3 8 2 0 3 2 -1
-1 -0 1 -2 5 -1 6 -6 4 3 -1 1 1 -1 -6 1 1 0 3 3 -1 -0 4 1 2 -1 5 -3 1 2 -2 1 2 2 1 1 1 0 1 1 3 -0 2 -0 2 2 2 4 0
2 1 4 -1 -1 3 2 -6 -2 -5 -2 -0 1 -0 -3 0 -1 -2 17 -3 1 0 2 -1 -1 -3 2 1 -4 -0 -1 -1 0 4 4 1 2 1 1 2 2 -0 3 1 3 -0 6 3 1
1 -2 2 1 10 6 -4 -4 5 2 -1 2 2 -3 -4 1 -1 9 -2 -5 -3 -0 -1 0 0 -0 -3 -2 -3 4 -2 1 2 3 -1 1 0 4 2 2 3 3 -1 4 -0 0 1 -2 7
2 -7 7 -3 -5 -9 8 -4 0 0 -2 -1 2 -2 3 4 1 1 -0 -3 1 6 4 -1 -0 -1 0 -3 -0 3 0 0 2 -2 4 5 3 3 0 2 1 -1 0 -2 -1 1 2 3 6
-4 -1 -1 -4 -2 -7 8 -5 6 2 1 1 -1 -1 1 1 -3 -2 -0 1 8 2 2 -0 1 -1 -0 -1 1 -1 5 1 2 -1 2 2 3 1 2 2 2 3 1 1 1 3 0 0 1
-0 -1 -2 -2 -3 4 10 7 -7 -1 1 2 1 -1 -3 -1 -1 0 -2 -1 2 -1 -1 2 -1 -2 -0 0 -0 -0 -3 6 5 1 -0 2 2 2 2 0 -0 1 2 3 2 2 -2 0 0
-4 -1 -1 2 2 -5 -14 9 -9 -1 1 1 3 3 -2 -4 -5 -1 -2 -0 -1 0 -1 -0 2 -2 -0 -2 -2 -1 1 -4 4 -1 1 3 1 2 -0 -1 -1 -1 0 1 1 2 2 -1 3
Height
5908 5910 5908 5908 5911 5908 5912 5910 5908 5906 5904 5903 5902 5900 5898 5896 5895 5897 5893 5892 5891 5891 5892 5893 5894 5895 5894 5895 5897 5897 5897 5899 5900 5901 5901 5902 5904 5904 5904 5904 5904 5905 5906 5907 5909 5910 5911 5913 5914
5909 5910 5910 5910 5913 5916 5913 5910 5908 5906 5904 5902 5901 5899 5898 5896 5895 5894 5893 5891 5891 5891 5891 5891 5893 5894 5894 5894 5894 5895 5896 5896 5898 5900 5901 5903 5903 5903 5903 5904 5904 5905 5907 5908 5909 5910 5912 5914 5915
5910 5911 5913 5913 5914 5917 5915 5911 5910 5907 5905 5903 5901 5898 5896 5895 5894 5894 5892 5890 5890 5890 5890 5890 5891 5893 5893 5893 5893 5894 5894 5895 5897 5898 5899 5901 5902 5902 5902 5904 5904 5906 5907 5908 5909 5911 5912 5914 5915
5911 5912 5914 5915 5917 5915 5913 5911 5909 5906 5904 5902 5900 5898 5897 5894 5892 5892 5892 5890 5890 5890 5889 5889 5890 5891 5891 5892 5892 5892 5893 5894 5894 5896 5897 5899 5901 5902 5901 5903 5903 5905 5907 5909 5910 5911 5912 5914 5915
5911 5912 5913 5914 5915 5914 5913 5912 5910 5907 5905 5903 5901 5900 5897 5894 5891 5889 5888 5888 5887 5887 5888 5888 5888 5888 5889 5889 5891 5891 5891 5892 5893 5894 5895 5897 5898 5900 5900 5902 5903 5904 5907 5909 5910 5911 5912 5913 5915
5910 5912 5915 5917 5915 5914 5913 5912 5910 5907 5905 5904 5902 5901 5897 5893 5891 5889 5887 5886 5885 5885 5886 5887 5887 5887 5887 5886 5887 5888 5890 5891 5891 5893 5894 5894 5897 5898 5899 5900 5902 5903 5906 5908 5909 5911 5911 5912 5914
5909 5912 5914 5915 5915 5914 5913 5912 5910 5907 5904 5903 5903 5901 5898 5894 5891 5888 5886 5885 5883 5882 5883 5884 5885 5885 5883 5884 5884 5885 5886 5887 5889 5890 5892 5893 5893 5896 5897 5899 5901 5902 5905 5907 5908 5910 5911 5912 5913
5909 5911 5913 5914 5914 5913 5912 5911 5908 5905 5903 5903 5903 5900 5897 5893 5891 5887 5885 5884 5882 5881 5881 5881 5882 5882 5882 5882 5882 5882 5884 5883 5885 5888 5889 5888 5890 5891 5895 5897 5899 5901 5903 5906 5907 5908 5910 5911 5913
5910 5911 5912 5913 5913 5913 5912 5911 5908 5905 5904 5903 5902 5900 5896 5893 5890 5887 5885 5883 5880 5880 5879 5879 5879 5879 5880 5880 5879 5878 5880 5877 5879 5881 5884 5884 5885 5888 5891 5893 5896 5897 5901 5904 5905 5907 5909 5911 5912
5910 5911 5911 5911 5911 5912 5912 5910 5907 5905 5903 5902 5901 5899 5895 5892 5889 5887 5884 5882 5879 5877 5877 5876 5877 5876 5875 5877 5877 5877 5876 5873 5870 5874 5873 5876 5879 5883 5886 5890 5892 5895 5899 5901 5903 5905 5907 5908 5910
5910 5911 5910 5910 5910 5910 5910 5909 5907 5905 5903 5901 5900 5898 5894 5891 5887 5885 5884 5882 5878 5876 5875 5874 5874 5874 5873 5874 5874 5874 5874 5873 5874 5873 5870 5870 5877 5879 5883 5886 5888 5892 5895 5898 5901 5903 5905 5906 5908
5910 5910 5909 5909 5909 5909 5908 5907 5907 5905 5903 5901 5899 5897 5892 5889 5887 5884 5882 5879 5877 5874 5873 5872 5872 5871 5870 5869 5870 5870 5871 5870 5872 5872 5870 5869 5869 5873 5879 5883 5885 5887 5892 5895 5897 5900 5903 5904 5907
5909 5909 5909 5909 5908 5906 5906 5906 5905 5903 5901 5899 5897 5894 5891 5888 5885 5882 5880 5875 5871 5870 5869 5869 5869 5869 5867 5866 5866 5866 5867 5867 5867 5869 5869 5869 5869 5869 5873 5877 5883 5883 5886 5891 5894 5898 5900 5902 5905
5908 5908 5907 5907 5907 5905 5904 5904 5902 5900 5899 5897 5895 5892 5889 5886 5884 5880 5876 5873 5871 5869 5867 5866 5865 5865 5865 5863 5862 5861 5861 5863 5862 5864 5865 5864 5865 5868 5868 5871 5877 5882 5883 5885 5890 5894 5897 5900 5903
5906 5905 5905 5905 5905 5903 5902 5902 5901 5899 5897 5895 5893 5890 5887 5884 5881 5879 5876 5873 5871 5868 5866 5864 5863 5861 5860 5860 5858 5857 5856 5859 5858 5859 5861 5862 5862 5860 5863 5867 5873 5878 5881 5882 5887 5890 5895 5898 5900
5904 5904 5905 5904 5903 5902 5901 5905 5899 5898 5896 5893 5890 5888 5885 5882 5879 5877 5875 5872 5869 5867 5865 5862 5859 5857 5855 5854 5853 5853 5852 5852 5852 5853 5855 5857 5856 5856 5860 5863 5867 5871 5876 5879 5882 5887 5891 5895 5898
5902 5903 5902 5901 5900 5899 5900 5899 5897 5895 5893 5891 5888 5886 5884 5881 5879 5876 5874 5870 5868 5866 5862 5859 5858 5856 5854 5852 5850 5847 5846 5846 5844 5845 5847 5848 5850 5853 5856 5858 5862 5866 5870 5874 5879 5883 5888 5891 5894
5899 5900 5898 5896 5897 5896 5895 5895 5894 5893 5891 5890 5887 5885 5882 5879 5877 5875 5872 5869 5867 5865 5861 5858 5856 5855 5853 5851 5848 5844 5841 5837 5839 5839 5840 5843 5845 5847 5849 5852 5855 5859 5865 5870 5875 5880 5884 5887 5890
5896 5896 5895 5892 5893 5894 5892 5891 5892 5892 5890 5888 5885 5882 5879 5877 5874 5873 5870 5867 5866 5863 5860 5857 5855 5852 5850 5846 5842 5838 5832 5829 5828 5829 5832 5834 5836 5839 5842 5846 5850 5855 5860 5865 5869 5875 5879 5883 5886
5891 5892 5891 5889 5889 5891 5890 5890 5889 5889 5887 5885 5883 5880 5877 5875 5872 5870 5868 5866 5863 5861 5858 5854 5852 5848 5844 5838 5834 5829 5824 5822 5821 5818 5819 5824 5829 5831 5835 5840 5845 5851 5856 5861 5866 5872 5875 5879 5882
5887 5888 5886 5886 5887 5887 5887 5887 5885 5885 5884 5883 5881 5878 5875 5872 5870 5868 5866 5865 5861 5858 5854 5851 5847 5842 5837 5832 5825 5818 5813 5813 5813 5813 5813 5815 5819 5823 5827 5832 5838 5844 5851 5856 5861 5867 5872 5875 5878
5882 5881 5881 5882 5884 5887 5883 5890 5883 5881 5880 5879 5878 5875 5872 5869 5867 5865 5863 5862 5857 5854 5852 5848 5844 5837 5830 5823 5815 5808 5805 5804 5805 5807 5808 5810 5814 5818 5822 5826 5832 5839 5846 5852 5858 5863 5867 5871 5874
5877 5876 5878 5879 5880 5880 5880 5882 5883 5878 5876 5876 5874 5871 5869 5868 5864 5862 5861 5857 5854 5852 5848 5844 5838 5831 5824 5817 5807 5803 5800 5798 5800 5801 5804 5807 5810 5813 5818 5823 5829 5836 5842 5848 5854 5859 5864 5867 5870
5871 5873 5873 5875 5876 5877 5878 5877 5880 5876 5873 5872 5869 5867 5865 5864 5862 5859 5856 5853 5850 5849 5845 5840 5834 5827 5821 5812 5804 5801 5797 5797 5798 5799 5801 5805 5807 5811 5816 5821 5826 5834 5839 5844 5850 5854 5859 5863 5866
5865 5868 5870 5872 5873 5876 5873 5872 5874 5871 5869 5867 5866 5864 5861 5861 5858 5854 5852 5848 5847 5845 5841 5837 5832 5826 5819 5813 5805 5799 5797 5798 5798 5799 5801 5803 5806 5810 5814 5819 5825 5832 5837 5841 5846 5851 5854 5858 5861
5858 5861 5868 5871 5874 5874 5869 5869 5871 5867 5865 5864 5863 5862 5860 5858 5854 5851 5848 5845 5843 5841 5839 5835 5831 5825 5820 5813 5806 5801 5798 5799 5799 5799 5802 5804 5806 5809 5812 5818 5824 5829 5834 5839 5843 5848 5852 5854 5857
5853 5854 5861 5864 5866 5867 5869 5866 5865 5864 5863 5861 5860 5859 5857 5854 5851 5849 5845 5843 5843 5841 5837 5834 5830 5826 5821 5814 5808 5802 5800 5799 5801 5800 5803 5805 5807 5810 5814 5818 5823 5828 5831 5835 5840 5844 5847 5850 5853
5848 5853 5856 5859 5863 5865 5866 5863 5863 5862 5861 5860 5859 5857 5855 5851 5848 5847 5845 5842 5840 5838 5834 5831 5828 5826 5822 5816 5810 5805 5802 5801 5803 5804 5806 5808 5810 5812 5816 5819 5822 5826 5829 5833 5836 5840 5843 5846 5848
5846 5849 5852 5857 5858 5862 5864 5862 5860 5859 5859 5858 5856 5855 5852 5848 5846 5844 5841 5838 5836 5833 5830 5827 5825 5825 5823 5818 5812 5809 5806 5803 5804 5806 5807 5810 5812 5814 5817 5819 5822 5824 5826 5828 5831 5835 5838 5841 5843
5842 5845 5847 5852 5855 5854 5856 5861 5857 5856 5856 5855 5853 5850 5848 5845 5842 5840 5838 5836 5834 5830 5825 5824 5824 5823 5822 5819 5816 5812 5809 5808 5805 5806 5808 5810 5811 5814 5815 5817 5820 5822 5823 5825 5827 5831 5834 5836 5838